Cloud_Cover
100 100 100 64 99 100 100 100 100 100 100 100 39 5 4 0 0 0 0 0 0 0 0 0 8 3 19 87 78 74 0 0 0 0 0 37 38 17 12 96 53 77 80 9 0 0 82 93 49
100 100 100 100 100 90 100 11 100 100 100 100 65 5 2 4 0 0 0 0 0 0 0 0 0 0 6 54 38 97 0 0 0 0 10 94 41 33 25 23 5 39 99 2 0 0 2 100 97
100 100 99 100 100 100 98 60 98 74 53 100 84 31 1 3 17 9 5 0 0 0 0 0 0 2 21 36 59 3 0 0 0 0 5 99 75 55 1 1 5 10 89 88 27 1 98 57 0
100 100 100 100 96 100 100 100 99 24 27 29 10 17 4 5 68 5 5 0 2 0 0 0 0 0 8 0 19 0 0 0 0 0 0 100 100 35 5 70 100 100 100 93 4 0 27 2 4
100 100 100 100 100 51 44 13 72 93 10 5 81 15 6 9 5 5 5 1 0 0 0 0 0 0 26 0 0 0 0 0 0 1 33 11 96 100 47 100 100 100 100 100 59 2 0 0 0
61 100 100 100 100 51 46 96 100 98 55 34 100 100 69 4 5 5 5 4 0 2 4 0 0 0 0 2 1 0 0 0 0 0 100 37 83 100 100 100 100 100 100 81 68 34 3 0 0
7 100 100 89 90 29 27 99 100 92 84 100 87 20 5 38 13 9 2 0 0 4 3 0 0 0 0 0 0 0 1 0 0 0 0 0 96 100 100 100 100 100 100 95 100 100 100 68 34
100 100 100 100 22 5 5 9 94 90 93 62 6 4 51 9 10 5 5 0 2 5 5 5 0 16 23 25 20 0 0 0 0 0 4 61 100 100 100 86 61 9 31 80 94 100 79 84 90
100 100 100 100 6 12 29 40 11 5 15 5 5 5 44 25 5 2 0 0 1 2 5 5 5 23 26 13 2 7 64 1 6 0 3 50 100 100 100 100 100 100 100 12 5 29 58 47 84
42 100 93 17 6 86 97 14 23 5 5 5 7 57 34 10 10 4 0 0 0 0 5 23 36 20 35 31 10 5 0 0 0 0 23 55 98 100 100 100 100 100 30 5 4 0 2 0 2
8 100 68 43 7 95 98 98 82 5 6 60 6 19 5 5 5 5 0 0 1 2 5 5 28 18 32 45 34 32 17 2 3 4 61 26 54 100 100 100 100 76 5 4 3 5 5 5 3
0 5 20 99 10 4 4 64 93 100 98 98 46 35 3 0 0 0 5 5 16 19 55 5 6 34 26 38 38 7 12 5 0 1 5 41 100 100 100 100 96 5 26 3 5 5 5 0 0
0 0 5 19 42 5 12 5 5 3 2 1 0 4 2 0 0 5 5 5 75 28 50 5 30 96 56 39 22 6 1 4 5 88 39 60 32 96 100 96 17 5 24 5 19 5 0 0 0
0 1 1 4 5 5 37 30 4 1 5 2 0 0 0 0 1 5 5 5 5 84 48 100 86 100 90 85 5 0 0 5 5 12 10 5 43 70 16 6 41 5 5 11 6 5 0 0 0
0 6 0 5 5 12 4 0 0 0 0 0 0 0 0 0 4 5 5 5 65 8 83 87 8 8 86 80 9 5 5 2 0 5 6 5 19 6 74 33 5 4 5 5 5 1 13 11 10
32 94 2 0 0 0 0 1 1 0 0 0 0 0 0 0 5 50 18 97 60 21 73 96 27 5 2 5 5 5 5 0 1 1 4 5 5 5 2 0 0 1 5 3 5 5 1 0 58
98 5 1 0 0 0 0 0 0 0 0 0 0 0 0 2 2 5 99 90 24 4 2 4 1 0 0 0 1 0 2 0 4 3 0 0 0 0 2 2 0 4 5 5 7 9 21 5 19
69 13 39 0 2 0 0 0 0 0 0 0 0 0 0 0 2 66 100 69 39 10 4 0 0 0 0 0 0 0 0 0 0 0 1 9 5 5 5 5 5 6 5 4 30 53 87 100 100
9 92 2 0 4 0 0 0 0 0 0 0 0 0 0 8 70 86 100 98 96 53 39 1 0 0 0 0 0 0 0 0 0 0 0 0 5 78 99 61 12 5 5 3 0 6 9 21 87
67 99 5 1 5 5 0 0 0 0 0 0 0 0 4 26 5 87 100 99 71 48 56 5 2 0 0 0 4 1 0 0 0 0 2 5 16 28 10 5 5 3 0 0 0 0 0 3 5
67 0 3 3 5 5 0 0 0 0 0 0 0 0 5 5 5 18 96 99 66 27 96 93 74 68 20 5 4 0 0 2 5 5 5 13 5 5 4 0 0 0 0 0 0 0 0 0 1
0 5 3 5 7 5 4 1 0 0 0 0 0 5 5 5 5 5 97 92 56 5 44 100 98 67 65 5 4 4 1 5 5 5 5 5 5 1 0 0 0 4 0 0 0 0 2 5 5
24 7 33 86 64 73 3 4 0 0 0 4 0 2 5 5 5 5 64 96 6 5 5 19 42 96 84 86 65 34 20 5 5 5 5 4 0 0 0 0 0 0 0 0 2 5 5 5 5
14 99 47 30 88 5 0 0 0 0 0 0 0 4 5 67 63 22 5 82 17 68 92 27 5 1 4 71 100 98 37 4 1 0 0 0 0 0 0 0 0 0 3 10 40 23 5 5 4
70 33 90 94 90 5 0 0 0 0 0 0 0 0 2 5 5 5 5 0 5 100 98 99 11 4 5 2 0 0 0 0 0 0 0 3 4 1 0 4 5 5 5 5 5 4 3 5 5
100 80 100 87 5 5 0 0 0 0 0 0 0 0 0 0 2 0 0 0 0 4 18 91 16 5 5 5 5 5 1 0 1 5 5 5 5 7 81 57 5 10 28 5 5 5 5 5 5
100 99 95 21 3 5 0 0 0 0 0 0 0 0 0 0 0 0 0 0 0 0 5 71 6 35 28 5 5 5 10 69 70 31 10 13 60 78 56 62 67 53 9 50 6 5 5 5 0
40 92 100 53 5 5 0 0 0 0 0 0 0 0 0 0 0 3 0 0 0 0 5 5 5 5 37 5 76 28 49 51 41 5 12 85 99 54 46 67 20 57 21 5 5 5 0 0 0
100 54 100 70 6 5 1 0 0 0 0 0 0 0 0 0 0 0 0 0 0 4 5 54 12 5 5 7 61 68 72 25 39 29 34 5 5 9 4 3 5 5 5 5 3 3 0 0 0
25 66 30 5 5 4 0 0 0 0 0 0 0 0 0 0 0 0 0 1 5 20 100 6 5 10 28 76 90 100 100 76 6 16 5 5 5 4 5 5 5 5 5 2 0 0 0 0 0